• In Belgium
  • List of Countries
  • For 7 days
  • Water Temperature
  • Satellite Maps
  • Weather Map
  • Weather Widgets
  • user-avatar
    Login

    Hourly Weather Bruges

    Today, 20 October, Saturday

    Time Temperature Precipitation Wind Pressure Humidity
    00:00 +9°C° 0 mm 2 mps 770 mmHg 85%
    01:00 +9°C° 0 mm 2 mps 770 mmHg 86%
    02:00 +8°C° 0 mm 2 mps 770 mmHg 86%
    03:00 +9°C° 0 mm 1 mps 770 mmHg 87%
    04:00 +9°C° 0 mm 1 mps 771 mmHg 88%
    05:00 +9°C° 0 mm 1 mps 771 mmHg 88%
    06:00 +9°C° 0 mm 1 mps 772 mmHg 89%
    07:00 +10°C° 0 mm 1 mps 772 mmHg 83%
    08:00 +11°C° 0 mm 1 mps 772 mmHg 77%
    09:00 +12°C° 0 mm 1 mps 772 mmHg 71%
    10:00 +14°C° 0 mm 1 mps 772 mmHg 66%
    11:00 +15°C° 0 mm 1 mps 772 mmHg 61%
    12:00 +16°C° 0 mm 1 mps 772 mmHg 56%
    13:00 +16°C° 0 mm 1 mps 772 mmHg 56%
    14:00 +16°C° 0 mm 1 mps 772 mmHg 56%
    15:00 +16°C° 0 mm 1 mps 772 mmHg 56%
    16:00 +15°C° 0 mm 1 mps 772 mmHg 63%
    17:00 +13°C° 0 mm 1 mps 772 mmHg 69%
    18:00 +12°C° 0 mm 1 mps 772 mmHg 76%
    19:00 +12°C° 0 mm 1 mps 772 mmHg 78%
    20:00 +11°C° 0 mm 1 mps 772 mmHg 79%
    21:00 +11°C° 0 mm 1 mps 772 mmHg 81%
    22:00 +11°C° 0 mm 1 mps 772 mmHg 81%
    23:00 +9°C° 0 mm 2 mps 772 mmHg 81%

    Tomorrow, 21 October, Sunday

    Time Temperature Precipitation Wind Pressure Humidity
    00:00 +9°C° 0 mm 2 mps 772 mmHg 81%
    01:00 +9°C° 0 mm 2 mps 771 mmHg 80%
    02:00 +9°C° 0 mm 2 mps 771 mmHg 80%
    03:00 +9°C° 0 mm 2 mps 771 mmHg 79%
    04:00 +9°C° 0 mm 2 mps 771 mmHg 79%
    05:00 +8°C° 0 mm 2 mps 770 mmHg 78%
    06:00 +8°C° 0 mm 2 mps 770 mmHg 78%
    07:00 +10°C° 0 mm 2 mps 770 mmHg 73%
    08:00 +12°C° 0 mm 2 mps 770 mmHg 68%
    09:00 +13°C° 0 mm 2 mps 770 mmHg 63%
    10:00 +15°C° 0 mm 2 mps 770 mmHg 59%
    11:00 +16°C° 0 mm 2 mps 770 mmHg 56%
    12:00 +17°C° 0 mm 2 mps 770 mmHg 53%
    13:00 +18°C° 0 mm 2 mps 769 mmHg 53%
    14:00 +19°C° 0 mm 1 mps 769 mmHg 54%
    15:00 +19°C° 0 mm 1 mps 769 mmHg 54%
    16:00 +16°C° 0 mm 2 mps 769 mmHg 60%
    17:00 +15°C° 0 mm 2 mps 769 mmHg 65%
    18:00 +13°C° 0 mm 2 mps 769 mmHg 71%
    19:00 +13°C° 0 mm 2 mps 769 mmHg 73%
    20:00 +13°C° 0 mm 2 mps 769 mmHg 76%
    21:00 +13°C° 0 mm 2 mps 769 mmHg 78%
    22:00 +12°C° 0.2 mm 3 mps 769 mmHg 80%
    23:00 +13°C° 0.2 mm 4 mps 769 mmHg 81%

    Day after tomorrow, 22 October, Monday

    Time Temperature Precipitation Wind Pressure Humidity
    00:00 +13°C° 0.2 mm 5 mps 770 mmHg 82%
    01:00 +13°C° 0.3 mm 6 mps 770 mmHg 84%
    02:00 +12°C° 0.3 mm 7 mps 770 mmHg 86%
    03:00 +13°C° 0.3 mm 8 mps 770 mmHg 88%
    04:00 +12°C° 0.2 mm 8 mps 771 mmHg 85%
    05:00 +12°C° 0.2 mm 8 mps 771 mmHg 83%
    06:00 +12°C° 0.2 mm 8 mps 772 mmHg 80%
    07:00 +12°C° 0 mm 8 mps 773 mmHg 77%
    08:00 +12°C° 0 mm 8 mps 773 mmHg 74%
    09:00 +12°C° 0 mm 7 mps 774 mmHg 71%
    10:00 +12°C° 0 mm 7 mps 774 mmHg 68%
    11:00 +12°C° 0 mm 7 mps 775 mmHg 65%
    12:00 +12°C° 0 mm 7 mps 775 mmHg 63%
    13:00 +11°C° 0 mm 7 mps 775 mmHg 62%
    14:00 +11°C° 0 mm 6 mps 775 mmHg 62%
    15:00 +11°C° 0 mm 6 mps 775 mmHg 62%
    16:00 +12°C° 0 mm 5 mps 776 mmHg 61%
    17:00 +10°C° 0 mm 5 mps 776 mmHg 61%
    18:00 +11°C° 0 mm 4 mps 776 mmHg 60%
    19:00 +11°C° 0 mm 4 mps 776 mmHg 62%
    20:00 +10°C° 0 mm 4 mps 777 mmHg 64%
    21:00 +10°C° 0 mm 4 mps 777 mmHg 67%
    22:00 +10°C° 0 mm 4 mps 777 mmHg 66%
    23:00 +10°C° 0 mm 4 mps 776 mmHg 66%

    23 October, Tuesday

    Time Temperature Precipitation Wind Pressure Humidity
    00:00 +10°C° 0 mm 4 mps 776 mmHg 65%
    01:00 +10°C° 0 mm 4 mps 776 mmHg 68%
    02:00 +8°C° 0 mm 5 mps 775 mmHg 70%
    03:00 +8°C° 0 mm 5 mps 775 mmHg 72%
    04:00 +8°C° 0 mm 5 mps 774 mmHg 74%
    05:00 +8°C° 0 mm 6 mps 774 mmHg 76%
    06:00 +8°C° 0 mm 6 mps 773 mmHg 78%
    07:00 +9°C° 0 mm 6 mps 773 mmHg 78%
    08:00 +9°C° 0 mm 6 mps 773 mmHg 77%
    09:00 +10°C° 0 mm 6 mps 773 mmHg 77%
    10:00 +10°C° 0.1 mm 6 mps 772 mmHg 77%
    11:00 +11°C° 0.1 mm 7 mps 772 mmHg 76%
    12:00 +11°C° 0.1 mm 7 mps 772 mmHg 76%
    13:00 +11°C° 0 mm 7 mps 771 mmHg 76%
    14:00 +11°C° 0 mm 7 mps 771 mmHg 77%
    15:00 +12°C° 0 mm 7 mps 770 mmHg 77%
    16:00 +11°C° 0 mm 7 mps 770 mmHg 78%
    17:00 +11°C° 0 mm 7 mps 770 mmHg 79%
    18:00 +11°C° 0 mm 7 mps 770 mmHg 80%
    19:00 +11°C° 0 mm 7 mps 770 mmHg 81%
    20:00 +11°C° 0 mm 7 mps 770 mmHg 82%
    21:00 +11°C° 0 mm 7 mps 770 mmHg 83%
    22:00 +12°C° 0 mm 7 mps 770 mmHg 83%
    23:00 +12°C° 0 mm 7 mps 770 mmHg 84%

    24 October, Wednesday

    Time Temperature Precipitation Wind Pressure Humidity
    00:00 +12°C° 0 mm 7 mps 770 mmHg 84%
    01:00 +12°C° 0 mm 7 mps 770 mmHg 85%
    02:00 +13°C° 0 mm 6 mps 770 mmHg 86%
    03:00 +13°C° 0 mm 6 mps 769 mmHg 87%
    04:00 +14°C° 0 mm 6 mps 770 mmHg 88%
    05:00 +14°C° 0 mm 6 mps 770 mmHg 88%
    06:00 +14°C° 0 mm 6 mps 770 mmHg 88%
    07:00 +14°C° 0 mm 6 mps 770 mmHg 86%
    08:00 +15°C° 0 mm 6 mps 770 mmHg 84%
    09:00 +16°C° 0 mm 6 mps 770 mmHg 82%
    10:00 +16°C° 0 mm 5 mps 770 mmHg 81%
    11:00 +16°C° 0 mm 5 mps 770 mmHg 79%
    12:00 +17°C° 0 mm 5 mps 770 mmHg 78%
    13:00 +17°C° 0 mm 5 mps 770 mmHg 78%
    14:00 +17°C° 0 mm 5 mps 770 mmHg 79%
    15:00 +18°C° 0 mm 4 mps 770 mmHg 79%
    16:00 +17°C° 0 mm 4 mps 770 mmHg 83%
    17:00 +15°C° 0 mm 4 mps 769 mmHg 88%
    18:00 +14°C° 0 mm 3 mps 769 mmHg 92%
    19:00 +14°C° 0 mm 3 mps 769 mmHg 92%
    20:00 +13°C° 0 mm 3 mps 769 mmHg 93%
    21:00 +13°C° 0 mm 3 mps 769 mmHg 94%
    22:00 +13°C° 0 mm 3 mps 769 mmHg 94%
    23:00 +13°C° 0 mm 4 mps 769 mmHg 94%

    25 October, Thursday

    Time Temperature Precipitation Wind Pressure Humidity
    00:00 +13°C° 0 mm 4 mps 769 mmHg 94%
    01:00 +13°C° 0 mm 4 mps 768 mmHg 94%
    02:00 +13°C° 0 mm 4 mps 768 mmHg 93%
    03:00 +13°C° 0 mm 4 mps 768 mmHg 93%
    04:00 +13°C° 0 mm 4 mps 767 mmHg 91%
    05:00 +12°C° 0 mm 4 mps 767 mmHg 90%
    06:00 +11°C° 0 mm 4 mps 767 mmHg 88%
    07:00 +12°C° 0 mm 4 mps 767 mmHg 83%
    08:00 +12°C° 0 mm 4 mps 767 mmHg 78%
    09:00 +13°C° 0 mm 5 mps 767 mmHg 74%
    10:00 +13°C° 0 mm 4 mps 767 mmHg 71%
    11:00 +14°C° 0 mm 4 mps 766 mmHg 68%
    12:00 +14°C° 0 mm 4 mps 766 mmHg 65%
    13:00 +14°C° 0 mm 4 mps 766 mmHg 66%
    14:00 +14°C° 0 mm 4 mps 765 mmHg 67%
    15:00 +14°C° 0 mm 4 mps 765 mmHg 67%
    16:00 +13°C° 0 mm 4 mps 765 mmHg 72%
    17:00 +11°C° 0 mm 4 mps 765 mmHg 77%
    18:00 +10°C° 0 mm 4 mps 765 mmHg 81%
    19:00 +10°C° 0 mm 4 mps 765 mmHg 82%
    20:00 +10°C° 0 mm 4 mps 765 mmHg 82%
    21:00 +10°C° 0 mm 4 mps 764 mmHg 83%
    22:00 +10°C° 0 mm 4 mps 764 mmHg 82%
    23:00 +11°C° 0 mm 4 mps 764 mmHg 80%
    Show more